Location: �clusier
(49.9361°N, 2.7869°E)
Time: 02:17:23
(UTC+00:00)

Cosmos 1626 - Visible Passes

Search period start: 17 October 2021 00:00
Search period end: 27 October 2021 00:00
Orbit: 490 x 491 km, 82.5° (Epoch: 16 October)

Date Brightness Start Highest point End Pass type
(mag) Time Alt. Az. Time Alt. Az. Time Alt. Az.
17 Oct 4.2 04:47:40 10° SSE 04:50:55 30° E 04:54:13 10° NNE visible
18 Oct 4.9 04:25:14 10° SE 04:28:05 21° E 04:30:56 10° NE visible
18 Oct 5.6 17:23:11 10° NW 17:24:55 13° W 17:26:38 10° WSW visible
19 Oct 5.4 04:03:06 10° ESE 04:05:15 15° E 04:07:26 10° NE visible
19 Oct 2.3 05:36:29 10° SSW 05:40:04 46° WNW 05:43:40 10° N visible
20 Oct 5.7 03:41:45 10° E 03:42:28 10° E 03:43:10 10° ENE visible
20 Oct 2.0 05:13:23 10° SSW 05:17:03 70° W 05:20:46 10° N visible
21 Oct 2.2 04:50:25 10° S 04:54:05 78° E 04:57:48 10° NNE visible
22 Oct 3.0 04:27:33 10° S 04:31:09 51° E 04:34:45 10° NNE visible
23 Oct 3.8 04:04:52 10° SSE 04:08:14 34° E 04:11:37 10° NNE visible
23 Oct 3.4 05:40:42 10° WSW 05:43:32 21° WNW 05:46:23 10° NNW visible
24 Oct 4.4 03:42:21 10° SE 03:45:21 24° E 03:48:21 10° NE visible
24 Oct 3.0 05:17:11 10° SW 05:20:26 28° WNW 05:23:42 10° N visible
25 Oct 5.0 03:20:26 12° ESE 03:22:29 17° E 03:24:55 10° NE visible
25 Oct 2.4 04:55:02 19° SW 04:57:22 41° WNW 05:00:54 10° N visible
26 Oct 5.3 02:59:13 12° E 02:59:40 12° E 03:01:03 10° ENE visible
26 Oct 2.0 04:33:48 54° WSW 04:34:20 62° WNW 04:38:01 10° N visible
